Time,TemperatureF,DewpointF,PressureIn,WindDirection,WindDirectionDegrees,WindSpeedMPH,WindSpeedGustMPH,Humidity,HourlyPrecipIn,Conditions,Clouds,dailyrainin,SoftwareType,DateUTC
2013-02-28 00:01:00,40.8,31.8,29.63,WSW,239,5.0,5.0,70,0.00,,,0.00,Wunderground v.1.15,2013-02-28 05:01:00,
2013-02-28 00:02:00,40.8,31.8,29.63,West,260,5.0,5.0,70,0.00,,,0.00,Wunderground v.1.15,2013-02-28 05:02:00,
2013-02-28 00:04:00,40.8,31.8,29.63,WSW,243,5.0,5.0,70,0.00,,,0.00,Wunderground v.1.15,2013-02-28 05:04:00,
2013-02-28 00:09:00,40.7,31.7,29.63,WSW,245,5.0,8.0,70,0.00,,,0.00,Wunderground v.1.15,2013-02-28 05:09:00,
2013-02-28 00:14:00,40.8,31.8,29.63,West,270,5.0,8.0,70,0.00,,,0.00,Wunderground v.1.15,2013-02-28 05:14:00,
2013-02-28 00:19:00,40.9,31.5,29.63,WNW,295,6.0,8.0,69,0.00,,,0.00,Wunderground v.1.15,2013-02-28 05:19:00,
2013-02-28 00:24:00,41.0,31.6,29.62,WSW,253,5.0,6.0,69,0.00,,,0.00,Wunderground v.1.15,2013-02-28 05:24:00,
2013-02-28 00:30:00,41.2,31.8,29.63,WSW,247,5.0,12.0,69,0.00,,,0.00,Wunderground v.1.15,2013-02-28 05:30:00,
2013-02-28 00:35:00,41.3,31.5,29.62,WSW,238,6.0,6.0,68,0.00,,,0.00,Wunderground v.1.15,2013-02-28 05:35:00,
2013-02-28 00:40:00,41.2,31.4,29.62,West,259,6.0,9.0,68,0.00,,,0.00,Wunderground v.1.15,2013-02-28 05:40:00,
2013-02-28 00:45:00,40.9,31.5,29.62,WNW,282,5.0,6.0,69,0.00,,,0.00,Wunderground v.1.15,2013-02-28 05:45:00,
2013-02-28 00:50:00,40.6,31.6,29.62,WSW,252,4.0,6.0,70,0.00,,,0.00,Wunderground v.1.15,2013-02-28 05:50:00,
2013-02-28 00:55:00,40.2,31.5,29.61,West,279,4.0,4.0,71,0.00,,,0.00,Wunderground v.1.15,2013-02-28 05:55:00,
2013-02-28 01:00:00,39.8,31.5,29.62,WNW,286,4.0,4.0,72,0.00,,,0.00,Wunderground v.1.15,2013-02-28 06:00:00,
2013-02-28 01:06:00,39.7,31.4,29.62,West,262,4.0,11.0,72,0.00,,,0.00,Wunderground v.1.15,2013-02-28 06:06:00,
2013-02-28 01:11:00,39.5,31.2,29.62,WSW,253,5.0,11.0,72,0.00,,,0.00,Wunderground v.1.15,2013-02-28 06:11:00,
2013-02-28 01:16:00,39.4,31.1,29.62,WSW,243,4.0,11.0,72,0.00,,,0.00,Wunderground v.1.15,2013-02-28 06:16:00,
2013-02-28 01:22:00,39.3,31.0,29.62,West,262,3.0,11.0,72,0.00,,,0.00,Wunderground v.1.15,2013-02-28 06:22:00,
2013-02-28 01:27:00,39.2,31.3,29.62,WSW,245,3.0,11.0,73,0.00,,,0.00,Wunderground v.1.15,2013-02-28 06:27:00,
2013-02-28 01:32:00,39.0,31.1,29.62,West,260,3.0,11.0,73,0.00,,,0.00,Wunderground v.1.15,2013-02-28 06:32:00,
2013-02-28 01:37:00,38.8,30.9,29.62,WSW,256,2.0,11.0,73,0.00,,,0.00,Wunderground v.1.15,2013-02-28 06:37:00,
2013-02-28 01:42:00,38.7,31.1,29.62,West,281,2.0,11.0,74,0.00,,,0.00,Wunderground v.1.15,2013-02-28 06:42:00,
2013-02-28 01:47:00,38.6,31.0,29.62,West,281,1.0,11.0,74,0.00,,,0.00,Wunderground v.1.15,2013-02-28 06:47:00,
2013-02-28 01:53:00,38.4,30.8,29.62,WNW,299,0.0,11.0,74,0.00,,,0.00,Wunderground v.1.15,2013-02-28 06:53:00,
2013-02-28 01:58:00,38.3,31.1,29.62,WNW,299,1.0,11.0,75,0.00,,,0.00,Wunderground v.1.15,2013-02-28 06:58:00,
2013-02-28 02:03:00,38.2,31.0,29.62,WNW,299,1.0,11.0,75,0.00,,,0.00,Wunderground v.1.15,2013-02-28 07:03:00,
2013-02-28 02:08:00,38.2,31.0,29.62,WNW,299,0.0,11.0,75,0.00,,,0.00,Wunderground v.1.15,2013-02-28 07:08:00,
2013-02-28 02:13:00,38.1,31.2,29.61,WNW,299,1.0,11.0,76,0.00,,,0.00,Wunderground v.1.15,2013-02-28 07:13:00,
2013-02-28 02:18:00,37.9,31.0,29.61,WNW,299,1.0,11.0,76,0.00,,,0.00,Wunderground v.1.15,2013-02-28 07:18:00,
2013-02-28 02:23:00,37.7,30.8,29.61,WNW,299,1.0,11.0,76,0.00,,,0.00,Wunderground v.1.15,2013-02-28 07:23:00,
2013-02-28 02:29:00,37.5,30.6,29.61,WNW,299,0.0,11.0,76,0.00,,,0.00,Wunderground v.1.15,2013-02-28 07:29:00,
2013-02-28 02:34:00,37.5,30.6,29.61,WNW,299,0.0,11.0,76,0.00,,,0.00,Wunderground v.1.15,2013-02-28 07:34:00,
2013-02-28 02:39:00,37.6,30.7,29.61,WNW,299,0.0,11.0,76,0.00,,,0.00,Wunderground v.1.15,2013-02-28 07:39:00,
2013-02-28 02:44:00,37.8,31.2,29.61,WNW,299,0.0,11.0,77,0.00,,,0.00,Wunderground v.1.15,2013-02-28 07:44:00,
2013-02-28 02:49:00,38.0,31.1,29.61,WNW,299,1.0,11.0,76,0.00,,,0.00,Wunderground v.1.15,2013-02-28 07:49:00,
2013-02-28 02:54:00,38.2,31.3,29.61,WNW,283,1.0,11.0,76,0.00,,,0.00,Wunderground v.1.15,2013-02-28 07:54:00,
2013-02-28 03:00:00,38.4,31.2,29.61,West,268,3.0,3.0,75,0.00,,,0.00,Wunderground v.1.15,2013-02-28 08:00:00,
2013-02-28 03:05:00,38.6,31.0,29.62,West,268,3.0,11.0,74,0.00,,,0.00,Wunderground v.1.15,2013-02-28 08:05:00,
2013-02-28 03:10:00,38.7,31.1,29.62,West,266,3.0,3.0,74,0.00,,,0.00,Wunderground v.1.15,2013-02-28 08:10:00,
2013-02-28 03:15:00,38.8,30.9,29.61,WNW,283,3.0,11.0,73,0.00,,,0.00,Wunderground v.1.15,2013-02-28 08:15:00,
2013-02-28 03:20:00,38.8,30.9,29.61,WNW,283,2.0,11.0,73,0.00,,,0.00,Wunderground v.1.15,2013-02-28 08:20:00,
2013-02-28 03:26:00,38.7,30.8,29.61,WNW,283,1.0,11.0,73,0.00,,,0.00,Wunderground v.1.15,2013-02-28 08:26:00,
2013-02-28 03:32:00,38.5,30.9,29.61,WNW,283,0.0,11.0,74,0.00,,,0.00,Wunderground v.1.15,2013-02-28 08:32:00,
2013-02-28 03:37:00,38.3,30.7,29.61,WNW,289,1.0,11.0,74,0.00,,,0.00,Wunderground v.1.15,2013-02-28 08:37:00,
2013-02-28 03:43:00,38.2,30.6,29.61,NW,305,1.0,11.0,74,0.00,,,0.00,Wunderground v.1.15,2013-02-28 08:43:00,
2013-02-28 03:48:00,38.1,30.9,29.61,NW,305,1.0,11.0,75,0.00,,,0.00,Wunderground v.1.15,2013-02-28 08:48:00,
2013-02-28 03:53:00,38.0,30.8,29.61,NW,305,1.0,11.0,75,0.00,,,0.00,Wunderground v.1.15,2013-02-28 08:53:00,
2013-02-28 03:58:00,37.9,30.7,29.62,NW,305,1.0,11.0,75,0.00,,,0.00,Wunderground v.1.15,2013-02-28 08:58:00,
2013-02-28 04:03:00,37.7,30.8,29.61,NW,305,1.0,11.0,76,0.00,,,0.00,Wunderground v.1.15,2013-02-28 09:03:00,
2013-02-28 04:09:00,37.6,30.7,29.62,West,278,2.0,11.0,76,0.00,,,0.00,Wunderground v.1.15,2013-02-28 09:09:00,
2013-02-28 04:14:00,37.5,30.6,29.62,West,278,1.0,11.0,76,0.00,,,0.00,Wunderground v.1.15,2013-02-28 09:14:00,
2013-02-28 04:20:00,37.4,30.5,29.62,West,278,1.0,11.0,76,0.00,,,0.00,Wunderground v.1.15,2013-02-28 09:20:00,
2013-02-28 04:26:00,37.6,29.0,29.62,West,272,3.0,11.0,71,0.00,,,0.00,Wunderground v.1.15,2013-02-28 09:26:00,
2013-02-28 04:31:00,37.7,28.4,29.62,WNW,292,4.0,11.0,69,0.00,,,0.00,Wunderground v.1.15,2013-02-28 09:31:00,
2013-02-28 04:36:00,37.6,28.3,29.62,NNW,334,3.0,11.0,69,0.00,,,0.00,Wunderground v.1.15,2013-02-28 09:36:00,
2013-02-28 04:42:00,37.5,28.2,29.62,West,280,2.0,11.0,69,0.00,,,0.00,Wunderground v.1.15,2013-02-28 09:42:00,
2013-02-28 04:47:00,37.5,28.6,29.62,West,278,3.0,11.0,70,0.00,,,0.00,Wunderground v.1.15,2013-02-28 09:47:00,
2013-02-28 04:52:00,37.3,28.8,29.63,West,270,2.0,11.0,71,0.00,,,0.00,Wunderground v.1.15,2013-02-28 09:52:00,
2013-02-28 04:58:00,37.1,28.2,29.63,West,262,2.0,11.0,70,0.00,,,0.00,Wunderground v.1.15,2013-02-28 09:58:00,
2013-02-28 05:04:00,36.9,28.0,29.63,WSW,256,3.0,11.0,70,0.00,,,0.00,Wunderground v.1.15,2013-02-28 10:04:00,
2013-02-28 05:10:00,36.6,27.4,29.63,WSW,244,3.0,11.0,69,0.00,,,0.00,Wunderground v.1.15,2013-02-28 10:10:00,
2013-02-28 05:15:00,36.6,26.7,29.63,West,268,3.0,11.0,67,0.00,,,0.00,Wunderground v.1.15,2013-02-28 10:15:00,
2013-02-28 05:20:00,36.7,26.4,29.63,West,265,4.0,11.0,66,0.00,,,0.00,Wunderground v.1.15,2013-02-28 10:20:00,
2013-02-28 05:25:00,36.7,26.0,29.64,WSW,239,5.0,13.0,65,0.00,,,0.00,Wunderground v.1.15,2013-02-28 10:25:00,
2013-02-28 05:31:00,36.8,26.1,29.64,WNW,301,6.0,11.0,65,0.00,,,0.00,Wunderground v.1.15,2013-02-28 10:31:00,
2013-02-28 05:36:00,36.7,26.0,29.64,West,276,6.0,11.0,65,0.00,,,0.00,Wunderground v.1.15,2013-02-28 10:36:00,
2013-02-28 05:42:00,36.5,25.8,29.64,West,269,6.0,11.0,65,0.00,,,0.00,Wunderground v.1.15,2013-02-28 10:42:00,
2013-02-28 05:47:00,36.4,26.1,29.64,West,270,5.0,11.0,66,0.00,,,0.00,Wunderground v.1.15,2013-02-28 10:47:00,
2013-02-28 05:53:00,36.2,25.9,29.64,WSW,253,4.0,11.0,66,0.00,,,0.00,Wunderground v.1.15,2013-02-28 10:53:00,
2013-02-28 05:58:00,36.1,25.8,29.64,WSW,245,3.0,11.0,66,0.00,,,0.00,Wunderground v.1.15,2013-02-28 10:58:00,
2013-02-28 06:04:00,36.0,25.7,29.64,WSW,257,2.0,11.0,66,0.00,,,0.00,Wunderground v.1.15,2013-02-28 11:04:00,
2013-02-28 06:10:00,35.8,25.5,29.65,West,277,2.0,11.0,66,0.00,,,0.00,Wunderground v.1.15,2013-02-28 11:10:00,
2013-02-28 06:16:00,35.6,25.7,29.65,West,270,3.0,11.0,67,0.00,,,0.00,Wunderground v.1.15,2013-02-28 11:16:00,
2013-02-28 06:21:00,35.5,25.6,29.64,WSW,249,4.0,11.0,67,0.00,,,0.00,Wunderground v.1.15,2013-02-28 11:21:00,
2013-02-28 06:27:00,35.4,25.5,29.64,West,268,3.0,11.0,67,0.00,,,0.00,Wunderground v.1.15,2013-02-28 11:27:00,
2013-02-28 06:32:00,35.2,25.3,29.64,WSW,256,3.0,11.0,67,0.00,,,0.00,Wunderground v.1.15,2013-02-28 11:32:00,
2013-02-28 06:38:00,35.2,25.7,29.65,West,267,3.0,11.0,68,0.00,,,0.00,Wunderground v.1.15,2013-02-28 11:38:00,
2013-02-28 06:43:00,35.1,25.6,29.65,WSW,256,3.0,11.0,68,0.00,,,0.00,Wunderground v.1.15,2013-02-28 11:43:00,
2013-02-28 06:49:00,34.9,25.8,29.65,WSW,250,2.0,11.0,69,0.00,,,0.00,Wunderground v.1.15,2013-02-28 11:49:00,
2013-02-28 06:55:00,34.7,25.9,29.65,West,260,3.0,11.0,70,0.00,,,0.00,Wunderground v.1.15,2013-02-28 11:55:00,
2013-02-28 07:00:00,34.6,26.2,29.65,West,269,3.0,3.0,71,0.00,,,0.00,Wunderground v.1.15,2013-02-28 12:00:00,
2013-02-28 07:06:00,34.6,25.8,29.65,West,266,3.0,11.0,70,0.00,,,0.00,Wunderground v.1.15,2013-02-28 12:06:00,
2013-02-28 07:11:00,34.7,25.9,29.65,West,260,4.0,11.0,70,0.00,,,0.00,Wunderground v.1.15,2013-02-28 12:11:00,
2013-02-28 07:17:00,34.8,26.4,29.65,WNW,285,4.0,11.0,71,0.00,,,0.00,Wunderground v.1.15,2013-02-28 12:17:00,
2013-02-28 07:22:00,34.6,26.2,29.65,WSW,243,4.0,11.0,71,0.00,,,0.00,Wunderground v.1.15,2013-02-28 12:22:00,
2013-02-28 07:28:00,34.5,26.4,29.65,West,270,4.0,11.0,72,0.00,,,0.00,Wunderground v.1.15,2013-02-28 12:28:00,
2013-02-28 07:33:00,34.6,26.5,29.65,West,268,3.0,11.0,72,0.00,,,0.00,Wunderground v.1.15,2013-02-28 12:33:00,
2013-02-28 07:39:00,34.9,26.4,29.65,WSW,249,3.0,11.0,71,0.00,,,0.00,Wunderground v.1.15,2013-02-28 12:39:00,
2013-02-28 07:44:00,35.0,26.5,29.65,West,260,4.0,11.0,71,0.00,,,0.00,Wunderground v.1.15,2013-02-28 12:44:00,
2013-02-28 07:50:00,35.1,26.6,29.65,West,264,4.0,4.0,71,0.00,,,0.00,Wunderground v.1.15,2013-02-28 12:50:00,
2013-02-28 07:55:00,35.2,26.4,29.65,WNW,295,4.0,11.0,70,0.00,,,0.00,Wunderground v.1.15,2013-02-28 12:55:00,
2013-02-28 08:01:00,35.4,26.2,29.65,West,276,4.0,11.0,69,0.00,,,0.00,Wunderground v.1.15,2013-02-28 13:01:00,
2013-02-28 08:06:00,35.6,26.4,29.65,WSW,254,3.0,11.0,69,0.00,,,0.00,Wunderground v.1.15,2013-02-28 13:06:00,
2013-02-28 08:12:00,35.8,25.9,29.65,West,270,3.0,11.0,67,0.00,,,0.00,Wunderground v.1.15,2013-02-28 13:12:00,
2013-02-28 08:17:00,36.0,25.7,29.65,West,261,4.0,11.0,66,0.00,,,0.00,Wunderground v.1.15,2013-02-28 13:17:00,
2013-02-28 08:22:00,36.1,25.5,29.66,SW,233,5.0,11.0,65,0.00,,,0.00,Wunderground v.1.15,2013-02-28 13:22:00,
2013-02-28 08:28:00,36.1,25.5,29.66,West,259,5.0,11.0,65,0.00,,,0.00,Wunderground v.1.15,2013-02-28 13:28:00,
2013-02-28 08:33:00,36.1,25.8,29.66,WSW,255,5.0,11.0,66,0.00,,,0.00,Wunderground v.1.15,2013-02-28 13:33:00,
2013-02-28 08:38:00,36.3,25.7,29.65,WSW,251,5.0,11.0,65,0.00,,,0.00,Wunderground v.1.15,2013-02-28 13:38:00,
2013-02-28 08:43:00,36.4,25.7,29.66,WSW,252,5.0,11.0,65,0.00,,,0.00,Wunderground v.1.15,2013-02-28 13:43:00,
2013-02-28 08:49:00,36.5,25.5,29.66,West,275,4.0,11.0,64,0.00,,,0.00,Wunderground v.1.15,2013-02-28 13:49:00,
2013-02-28 08:55:00,36.6,25.6,29.66,WSW,251,5.0,11.0,64,0.00,,,0.00,Wunderground v.1.15,2013-02-28 13:55:00,
2013-02-28 09:00:00,36.7,25.7,29.65,West,260,4.0,11.0,64,0.00,,,0.00,Wunderground v.1.15,2013-02-28 14:00:00,
2013-02-28 09:05:00,36.7,26.0,29.65,West,279,4.0,11.0,65,0.00,,,0.00,Wunderground v.1.15,2013-02-28 14:05:00,
2013-02-28 09:10:00,36.7,26.0,29.65,West,263,5.0,5.0,65,0.00,,,0.00,Wunderground v.1.15,2013-02-28 14:10:00,
2013-02-28 09:16:00,36.8,26.1,29.65,NW,308,5.0,11.0,65,0.00,,,0.00,Wunderground v.1.15,2013-02-28 14:16:00,
2013-02-28 09:21:00,36.9,26.2,29.65,West,280,6.0,11.0,65,0.00,,,0.00,Wunderground v.1.15,2013-02-28 14:21:00,
2013-02-28 09:27:00,37.1,26.8,29.65,West,262,5.0,11.0,66,0.00,,,0.00,Wunderground v.1.15,2013-02-28 14:27:00,
2013-02-28 09:32:00,37.3,27.0,29.65,WSW,253,4.0,11.0,66,0.00,,,0.00,Wunderground v.1.15,2013-02-28 14:32:00,
2013-02-28 09:37:00,37.3,27.0,29.66,West,278,5.0,11.0,66,0.00,,,0.00,Wunderground v.1.15,2013-02-28 14:37:00,
2013-02-28 09:43:00,37.1,26.8,29.66,West,278,8.0,11.0,66,0.00,,,0.00,Wunderground v.1.15,2013-02-28 14:43:00,
2013-02-28 09:48:00,37.1,27.2,29.66,SW,226,8.0,11.0,67,0.00,,,0.00,Wunderground v.1.15,2013-02-28 14:48:00,
2013-02-28 09:54:00,37.0,27.1,29.66,WSW,258,8.0,12.0,67,0.00,,,0.00,Wunderground v.1.15,2013-02-28 14:54:00,
2013-02-28 10:00:00,37.1,26.8,29.66,WSW,250,8.0,11.0,66,0.00,,,0.00,Wunderground v.1.15,2013-02-28 15:00:00,
2013-02-28 10:05:00,37.0,26.7,29.66,WSW,252,8.0,12.0,66,0.00,,,0.00,Wunderground v.1.15,2013-02-28 15:05:00,
2013-02-28 10:10:00,37.0,26.7,29.66,WNW,289,9.0,11.0,66,0.00,,,0.00,Wunderground v.1.15,2013-02-28 15:10:00,
2013-02-28 10:15:00,37.1,27.2,29.66,WSW,258,9.0,11.0,67,0.00,,,0.00,Wunderground v.1.15,2013-02-28 15:15:00,
2013-02-28 10:21:00,37.3,27.3,29.66,West,273,7.0,11.0,67,0.00,,,0.00,Wunderground v.1.15,2013-02-28 15:21:00,
2013-02-28 10:27:00,37.4,27.4,29.66,WSW,249,7.0,11.0,67,0.00,,,0.00,Wunderground v.1.15,2013-02-28 15:27:00,
2013-02-28 10:33:00,37.3,27.0,29.66,WSW,245,8.0,11.0,66,0.00,,,0.00,Wunderground v.1.15,2013-02-28 15:33:00,
2013-02-28 10:39:00,37.4,27.4,29.66,WSW,255,7.0,11.0,67,0.00,,,0.00,Wunderground v.1.15,2013-02-28 15:39:00,
2013-02-28 10:44:00,37.5,27.2,29.66,WSW,256,7.0,11.0,66,0.00,,,0.00,Wunderground v.1.15,2013-02-28 15:44:00,
2013-02-28 10:49:00,37.6,27.3,29.66,WSW,255,7.0,11.0,66,0.00,,,0.00,Wunderground v.1.15,2013-02-28 15:49:00,
2013-02-28 10:54:00,37.7,26.6,29.66,WSW,252,7.0,12.0,64,0.00,,,0.00,Wunderground v.1.15,2013-02-28 15:54:00,
2013-02-28 11:00:00,37.7,26.2,29.66,WNW,285,9.0,9.0,63,0.00,,,0.00,Wunderground v.1.15,2013-02-28 16:00:00,
2013-02-28 11:05:00,37.9,26.0,29.66,WSW,247,8.0,12.0,62,0.00,,,0.00,Wunderground v.1.15,2013-02-28 16:05:00,
2013-02-28 11:10:00,37.9,25.2,29.66,SW,231,8.0,11.0,60,0.00,,,0.00,Wunderground v.1.15,2013-02-28 16:10:00,
2013-02-28 11:15:00,37.9,25.2,29.66,West,265,9.0,11.0,60,0.00,,,0.00,Wunderground v.1.15,2013-02-28 16:15:00,
2013-02-28 11:21:00,38.0,25.7,29.66,West,264,8.0,11.0,61,0.00,,,0.00,Wunderground v.1.15,2013-02-28 16:21:00,
2013-02-28 11:26:00,38.1,25.0,29.66,West,276,9.0,15.0,59,0.00,,,0.00,Wunderground v.1.15,2013-02-28 16:26:00,
2013-02-28 11:32:00,38.0,24.9,29.66,WSW,237,10.0,11.0,59,0.00,,,0.00,Wunderground v.1.15,2013-02-28 16:32:00,
2013-02-28 11:38:00,38.3,24.8,29.66,West,267,8.0,11.0,58,0.00,,,0.00,Wunderground v.1.15,2013-02-28 16:38:00,
2013-02-28 11:44:00,38.4,24.9,29.66,WSW,256,8.0,14.0,58,0.00,,,0.00,Wunderground v.1.15,2013-02-28 16:44:00,
2013-02-28 11:50:00,38.2,24.7,29.66,WSW,255,8.0,11.0,58,0.00,,,0.00,Wunderground v.1.15,2013-02-28 16:50:00,
2013-02-28 11:56:00,38.1,24.6,29.66,SW,235,8.0,11.0,58,0.00,,,0.00,Wunderground v.1.15,2013-02-28 16:56:00,
2013-02-28 12:01:00,38.2,24.7,29.66,WNW,301,8.0,11.0,58,0.00,,,0.00,Wunderground v.1.15,2013-02-28 17:01:00,
2013-02-28 12:07:00,38.4,25.3,29.66,West,280,7.0,11.0,59,0.00,,,0.00,Wunderground v.1.15,2013-02-28 17:07:00,
2013-02-28 12:13:00,38.2,24.7,29.66,West,275,8.0,11.0,58,0.00,,,0.00,Wunderground v.1.15,2013-02-28 17:13:00,
2013-02-28 12:18:00,38.3,24.8,29.66,West,260,6.0,11.0,58,0.00,,,0.00,Wunderground v.1.15,2013-02-28 17:18:00,
2013-02-28 12:24:00,38.5,24.6,29.66,West,273,5.0,11.0,57,0.00,,,0.00,Wunderground v.1.15,2013-02-28 17:24:00,
2013-02-28 12:30:00,38.6,24.7,29.66,WNW,287,6.0,6.0,57,0.00,,,0.00,Wunderground v.1.15,2013-02-28 17:30:00,
2013-02-28 12:36:00,38.6,24.2,29.66,WSW,246,6.0,12.0,56,0.00,,,0.00,Wunderground v.1.15,2013-02-28 17:36:00,
2013-02-28 12:41:00,38.8,24.0,29.65,WNW,294,7.0,11.0,55,0.00,,,0.00,Wunderground v.1.15,2013-02-28 17:41:00,
2013-02-28 12:47:00,39.1,23.8,29.65,WNW,289,6.0,11.0,54,0.00,,,0.00,Wunderground v.1.15,2013-02-28 17:47:00,
2013-02-28 12:52:00,39.2,23.9,29.65,WNW,289,6.0,11.0,54,0.00,,,0.00,Wunderground v.1.15,2013-02-28 17:52:00,
2013-02-28 12:58:00,39.5,23.8,29.65,West,267,6.0,11.0,53,0.00,,,0.00,Wunderground v.1.15,2013-02-28 17:58:00,
2013-02-28 13:04:00,39.7,24.0,29.65,NW,316,6.0,11.0,53,0.00,,,0.00,Wunderground v.1.15,2013-02-28 18:04:00,
2013-02-28 13:10:00,40.1,24.3,29.65,WSW,243,5.0,12.0,53,0.00,,,0.00,Wunderground v.1.15,2013-02-28 18:10:00,
2013-02-28 13:15:00,40.1,24.3,29.65,NW,314,7.0,13.0,53,0.00,,,0.00,Wunderground v.1.15,2013-02-28 18:15:00,
2013-02-28 13:20:00,40.1,24.3,29.65,West,272,9.0,9.0,53,0.00,,,0.00,Wunderground v.1.15,2013-02-28 18:20:00,
2013-02-28 13:26:00,39.9,24.1,29.65,West,270,8.0,15.0,53,0.00,,,0.00,Wunderground v.1.15,2013-02-28 18:26:00,
2013-02-28 13:32:00,40.0,23.8,29.65,West,267,7.0,11.0,52,0.00,,,0.00,Wunderground v.1.15,2013-02-28 18:32:00,
2013-02-28 13:37:00,40.4,23.2,29.65,WSW,249,7.0,11.0,50,0.00,,,0.00,Wunderground v.1.15,2013-02-28 18:37:00,
2013-02-28 13:43:00,40.6,23.4,29.65,NNW,330,7.0,14.0,50,0.00,,,0.00,Wunderground v.1.15,2013-02-28 18:43:00,
2013-02-28 13:48:00,40.6,23.4,29.65,WNW,294,7.0,14.0,50,0.00,,,0.00,Wunderground v.1.15,2013-02-28 18:48:00,
2013-02-28 13:54:00,40.5,23.3,29.65,WNW,293,6.0,14.0,50,0.00,,,0.00,Wunderground v.1.15,2013-02-28 18:54:00,
2013-02-28 14:00:00,40.6,23.9,29.65,WSW,257,6.0,11.0,51,0.00,,,0.00,Wunderground v.1.15,2013-02-28 19:00:00,
2013-02-28 14:06:00,40.5,23.3,29.64,West,280,8.0,15.0,50,0.00,,,0.00,Wunderground v.1.15,2013-02-28 19:06:00,
2013-02-28 14:11:00,40.4,23.2,29.64,West,267,11.0,11.0,50,0.00,,,0.00,Wunderground v.1.15,2013-02-28 19:11:00,
2013-02-28 14:16:00,40.5,23.3,29.64,West,268,11.0,11.0,50,0.00,,,0.00,Wunderground v.1.15,2013-02-28 19:16:00,
2013-02-28 14:22:00,40.9,24.1,29.65,WNW,291,9.0,11.0,51,0.00,,,0.00,Wunderground v.1.15,2013-02-28 19:22:00,
2013-02-28 14:28:00,40.8,23.6,29.65,WNW,302,8.0,11.0,50,0.00,,,0.00,Wunderground v.1.15,2013-02-28 19:28:00,
2013-02-28 14:34:00,40.6,23.4,29.65,SW,228,9.0,12.0,50,0.00,,,0.00,Wunderground v.1.15,2013-02-28 19:34:00,
2013-02-28 14:39:00,40.8,24.1,29.65,West,264,9.0,12.0,51,0.00,,,0.00,Wunderground v.1.15,2013-02-28 19:39:00,
2013-02-28 14:44:00,41.0,24.2,29.65,WNW,283,9.0,12.0,51,0.00,,,0.00,Wunderground v.1.15,2013-02-28 19:44:00,
2013-02-28 14:49:00,41.2,24.4,29.65,West,278,9.0,12.0,51,0.00,,,0.00,Wunderground v.1.15,2013-02-28 19:49:00,
2013-02-28 14:55:00,41.5,24.7,29.65,WSW,247,9.0,11.0,51,0.00,,,0.00,Wunderground v.1.15,2013-02-28 19:55:00,
2013-02-28 15:01:00,41.3,24.0,29.65,WNW,285,8.0,11.0,50,0.00,,,0.00,Wunderground v.1.15,2013-02-28 20:01:00,
2013-02-28 15:06:00,40.7,24.0,29.65,WNW,297,10.0,20.0,51,0.00,,,0.00,Wunderground v.1.15,2013-02-28 20:06:00,
2013-02-28 15:12:00,40.4,23.2,29.65,West,272,12.0,19.0,50,0.00,,,0.00,Wunderground v.1.15,2013-02-28 20:12:00,
2013-02-28 15:17:00,40.7,24.0,29.64,WNW,296,11.0,19.0,51,0.00,,,0.00,Wunderground v.1.15,2013-02-28 20:17:00,
2013-02-28 15:22:00,40.4,23.7,29.65,West,277,10.0,14.0,51,0.00,,,0.00,Wunderground v.1.15,2013-02-28 20:22:00,
2013-02-28 15:27:00,40.3,24.1,29.65,West,269,10.0,14.0,52,0.00,,,0.00,Wunderground v.1.15,2013-02-28 20:27:00,
2013-02-28 15:32:00,40.4,24.1,29.65,West,276,9.0,14.0,52,0.00,,,0.00,Wunderground v.1.15,2013-02-28 20:32:00,
2013-02-28 15:38:00,40.6,24.3,29.65,West,280,9.0,14.0,52,0.00,,,0.00,Wunderground v.1.15,2013-02-28 20:38:00,
2013-02-28 15:43:00,40.6,24.3,29.65,West,261,10.0,15.0,52,0.00,,,0.00,Wunderground v.1.15,2013-02-28 20:43:00,
2013-02-28 15:49:00,40.6,24.8,29.65,NW,318,9.0,15.0,53,0.00,,,0.00,Wunderground v.1.15,2013-02-28 20:49:00,
2013-02-28 15:54:00,40.4,24.1,29.65,West,272,8.0,16.0,52,0.00,,,0.00,Wunderground v.1.15,2013-02-28 20:54:00,
2013-02-28 15:59:00,40.0,24.2,29.65,WNW,295,9.0,16.0,53,0.00,,,0.00,Wunderground v.1.15,2013-02-28 20:59:00,
2013-02-28 16:05:00,39.8,24.5,29.65,WSW,239,9.0,14.0,54,0.00,,,0.00,Wunderground v.1.15,2013-02-28 21:05:00,
2013-02-28 16:10:00,40.0,24.7,29.65,West,270,9.0,12.0,54,0.00,,,0.00,Wunderground v.1.15,2013-02-28 21:10:00,
2013-02-28 16:15:00,39.8,24.5,29.65,WSW,239,9.0,15.0,54,0.00,,,0.00,Wunderground v.1.15,2013-02-28 21:15:00,
2013-02-28 16:21:00,39.7,24.4,29.65,West,275,9.0,13.0,54,0.00,,,0.00,Wunderground v.1.15,2013-02-28 21:21:00,
2013-02-28 16:27:00,39.5,24.7,29.66,West,270,9.0,13.0,55,0.00,,,0.00,Wunderground v.1.15,2013-02-28 21:27:00,
2013-02-28 16:33:00,39.3,24.5,29.65,West,281,9.0,12.0,55,0.00,,,0.00,Wunderground v.1.15,2013-02-28 21:33:00,
2013-02-28 16:38:00,39.2,24.8,29.65,West,274,9.0,13.0,56,0.00,,,0.00,Wunderground v.1.15,2013-02-28 21:38:00,
2013-02-28 16:44:00,39.1,24.7,29.65,WSW,255,10.0,18.0,56,0.00,,,0.00,Wunderground v.1.15,2013-02-28 21:44:00,
2013-02-28 16:49:00,39.1,24.7,29.66,WNW,285,10.0,18.0,56,0.00,,,0.00,Wunderground v.1.15,2013-02-28 21:49:00,
2013-02-28 16:55:00,39.0,25.0,29.66,West,260,8.0,11.0,57,0.00,,,0.00,Wunderground v.1.15,2013-02-28 21:55:00,
2013-02-28 17:01:00,38.8,24.9,29.67,WNW,302,9.0,11.0,57,0.00,,,0.00,Wunderground v.1.15,2013-02-28 22:01:00,
2013-02-28 17:07:00,38.6,24.7,29.67,West,276,9.0,11.0,57,0.00,,,0.00,Wunderground v.1.15,2013-02-28 22:07:00,
2013-02-28 17:13:00,38.6,24.7,29.67,WNW,296,9.0,11.0,57,0.00,,,0.00,Wunderground v.1.15,2013-02-28 22:13:00,
2013-02-28 17:19:00,38.6,24.7,29.67,WNW,287,7.0,11.0,57,0.00,,,0.00,Wunderground v.1.15,2013-02-28 22:19:00,
2013-02-28 17:24:00,38.6,25.1,29.67,SW,225,7.0,11.0,58,0.00,,,0.00,Wunderground v.1.15,2013-02-28 22:24:00,
2013-02-28 17:30:00,38.5,25.0,29.68,West,270,7.0,11.0,58,0.00,,,0.00,Wunderground v.1.15,2013-02-28 22:30:00,
2013-02-28 17:36:00,38.4,24.9,29.68,WNW,296,7.0,11.0,58,0.00,,,0.00,Wunderground v.1.15,2013-02-28 22:36:00,
2013-02-28 17:41:00,38.4,24.9,29.68,SW,233,5.0,11.0,58,0.00,,,0.00,Wunderground v.1.15,2013-02-28 22:41:00,
2013-02-28 17:46:00,38.3,25.2,29.68,WSW,251,5.0,11.0,59,0.00,,,0.00,Wunderground v.1.15,2013-02-28 22:46:00,
2013-02-28 17:52:00,38.2,25.1,29.68,West,261,5.0,11.0,59,0.00,,,0.00,Wunderground v.1.15,2013-02-28 22:52:00,
2013-02-28 17:58:00,38.1,25.0,29.69,WSW,238,6.0,11.0,59,0.00,,,0.00,Wunderground v.1.15,2013-02-28 22:58:00,
2013-02-28 18:04:00,38.0,24.9,29.69,West,262,6.0,11.0,59,0.00,,,0.00,Wunderground v.1.15,2013-02-28 23:04:00,
2013-02-28 18:10:00,37.9,25.2,29.70,West,278,5.0,11.0,60,0.00,,,0.00,Wunderground v.1.15,2013-02-28 23:10:00,
2013-02-28 18:15:00,37.9,25.2,29.70,WNW,297,5.0,11.0,60,0.00,,,0.00,Wunderground v.1.15,2013-02-28 23:15:00,
2013-02-28 18:20:00,37.9,25.2,29.70,WNW,292,5.0,11.0,60,0.00,,,0.00,Wunderground v.1.15,2013-02-28 23:20:00,
2013-02-28 18:26:00,37.8,25.5,29.70,West,267,4.0,11.0,61,0.00,,,0.00,Wunderground v.1.15,2013-02-28 23:26:00,
2013-02-28 18:31:00,37.7,25.5,29.70,West,266,5.0,11.0,61,0.00,,,0.00,Wunderground v.1.15,2013-02-28 23:31:00,
2013-02-28 18:37:00,37.7,25.5,29.71,WSW,245,5.0,11.0,61,0.00,,,0.00,Wunderground v.1.15,2013-02-28 23:37:00,
2013-02-28 18:43:00,37.7,25.1,29.71,WSW,256,6.0,11.0,60,0.00,,,0.00,Wunderground v.1.15,2013-02-28 23:43:00,
2013-02-28 18:49:00,37.6,25.4,29.72,WNW,284,7.0,11.0,61,0.00,,,0.00,Wunderground v.1.15,2013-02-28 23:49:00,
2013-02-28 18:54:00,37.6,25.4,29.72,West,271,5.0,11.0,61,0.00,,,0.00,Wunderground v.1.15,2013-02-28 23:54:00,
2013-02-28 19:00:00,37.6,25.4,29.72,WSW,253,5.0,11.0,61,0.00,,,0.00,Wunderground v.1.15,2013-03-01 00:00:00,
2013-02-28 19:05:00,37.5,25.7,29.72,West,270,4.0,11.0,62,0.00,,,0.00,Wunderground v.1.15,2013-03-01 00:05:00,
2013-02-28 19:11:00,37.5,25.3,29.73,SW,234,5.0,11.0,61,0.00,,,0.00,Wunderground v.1.15,2013-03-01 00:11:00,
2013-02-28 19:16:00,37.5,25.7,29.73,WSW,249,6.0,11.0,62,0.00,,,0.00,Wunderground v.1.15,2013-03-01 00:16:00,
2013-02-28 19:22:00,37.5,25.7,29.73,WSW,250,5.0,11.0,62,0.00,,,0.00,Wunderground v.1.15,2013-03-01 00:22:00,
2013-02-28 19:27:00,37.4,25.6,29.73,West,268,5.0,11.0,62,0.00,,,0.00,Wunderground v.1.15,2013-03-01 00:27:00,
2013-02-28 19:33:00,37.4,25.6,29.73,WNW,292,5.0,11.0,62,0.00,,,0.00,Wunderground v.1.15,2013-03-01 00:33:00,
2013-02-28 19:38:00,37.4,25.6,29.73,West,273,5.0,11.0,62,0.00,,,0.00,Wunderground v.1.15,2013-03-01 00:38:00,
2013-02-28 19:44:00,37.2,25.8,29.73,WSW,245,5.0,11.0,63,0.00,,,0.00,Wunderground v.1.15,2013-03-01 00:44:00,
2013-02-28 19:49:00,37.1,25.7,29.73,WNW,291,5.0,11.0,63,0.00,,,0.00,Wunderground v.1.15,2013-03-01 00:49:00,
2013-02-28 19:55:00,37.0,25.6,29.73,WNW,285,4.0,11.0,63,0.00,,,0.00,Wunderground v.1.15,2013-03-01 00:55:00,
2013-02-28 20:00:00,37.0,25.6,29.73,NNW,327,6.0,11.0,63,0.00,,,0.00,Wunderground v.1.15,2013-03-01 01:00:00,
2013-02-28 20:06:00,37.0,25.6,29.73,West,264,6.0,11.0,63,0.00,,,0.00,Wunderground v.1.15,2013-03-01 01:06:00,
2013-02-28 20:11:00,37.0,25.6,29.74,West,274,6.0,11.0,63,0.00,,,0.00,Wunderground v.1.15,2013-03-01 01:11:00,
2013-02-28 20:16:00,37.0,25.9,29.74,West,269,6.0,11.0,64,0.00,,,0.00,Wunderground v.1.15,2013-03-01 01:16:00,
2013-02-28 20:22:00,36.9,25.9,29.73,SW,232,6.0,11.0,64,0.00,,,0.00,Wunderground v.1.15,2013-03-01 01:22:00,
2013-02-28 20:28:00,36.9,25.9,29.74,WNW,287,8.0,11.0,64,0.00,,,0.00,Wunderground v.1.15,2013-03-01 01:28:00,
2013-02-28 20:33:00,36.9,25.9,29.74,WNW,283,8.0,11.0,64,0.00,,,0.00,Wunderground v.1.15,2013-03-01 01:33:00,
2013-02-28 20:39:00,36.9,25.9,29.74,WNW,298,8.0,11.0,64,0.00,,,0.00,Wunderground v.1.15,2013-03-01 01:39:00,
2013-02-28 20:45:00,36.9,26.2,29.74,West,264,8.0,13.0,65,0.00,,,0.00,Wunderground v.1.15,2013-03-01 01:45:00,
2013-02-28 20:50:00,36.9,25.9,29.74,West,264,8.0,11.0,64,0.00,,,0.00,Wunderground v.1.15,2013-03-01 01:50:00,
2013-02-28 20:56:00,36.9,26.2,29.74,WSW,243,8.0,11.0,65,0.00,,,0.00,Wunderground v.1.15,2013-03-01 01:56:00,
2013-02-28 21:01:00,36.9,26.2,29.74,WNW,283,7.0,11.0,65,0.00,,,0.00,Wunderground v.1.15,2013-03-01 02:01:00,
2013-02-28 21:07:00,36.9,26.2,29.74,WNW,287,6.0,11.0,65,0.00,,,0.00,Wunderground v.1.15,2013-03-01 02:07:00,
2013-02-28 21:12:00,37.0,26.3,29.74,WNW,283,6.0,11.0,65,0.00,,,0.00,Wunderground v.1.15,2013-03-01 02:12:00,
2013-02-28 21:17:00,36.9,26.2,29.74,WNW,300,6.0,11.0,65,0.00,,,0.00,Wunderground v.1.15,2013-03-01 02:17:00,
2013-02-28 21:23:00,36.9,26.6,29.74,West,265,6.0,11.0,66,0.00,,,0.00,Wunderground v.1.15,2013-03-01 02:23:00,
2013-02-28 21:28:00,36.9,26.6,29.74,WNW,283,6.0,11.0,66,0.00,,,0.00,Wunderground v.1.15,2013-03-01 02:28:00,
2013-02-28 21:34:00,36.8,26.5,29.74,West,274,6.0,11.0,66,0.00,,,0.00,Wunderground v.1.15,2013-03-01 02:34:00,
2013-02-28 21:39:00,36.8,26.5,29.73,West,276,7.0,11.0,66,0.00,,,0.00,Wunderground v.1.15,2013-03-01 02:39:00,
2013-02-28 21:44:00,36.8,26.5,29.73,West,270,7.0,11.0,66,0.00,,,0.00,Wunderground v.1.15,2013-03-01 02:44:00,
2013-02-28 21:49:00,36.8,26.9,29.73,West,268,6.0,11.0,67,0.00,,,0.00,Wunderground v.1.15,2013-03-01 02:49:00,
2013-02-28 21:55:00,36.8,26.9,29.73,WNW,290,7.0,11.0,67,0.00,,,0.00,Wunderground v.1.15,2013-03-01 02:55:00,
2013-02-28 22:01:00,36.8,26.9,29.73,WNW,289,6.0,10.0,67,0.00,,,0.00,Wunderground v.1.15,2013-03-01 03:01:00,
2013-02-28 22:07:00,36.8,26.9,29.73,WNW,291,6.0,11.0,67,0.00,,,0.00,Wunderground v.1.15,2013-03-01 03:07:00,
2013-02-28 22:12:00,36.7,26.8,29.73,West,275,6.0,11.0,67,0.00,,,0.00,Wunderground v.1.15,2013-03-01 03:12:00,
2013-02-28 22:17:00,36.7,26.8,29.73,West,280,7.0,11.0,67,0.00,,,0.00,Wunderground v.1.15,2013-03-01 03:17:00,
2013-02-28 22:23:00,36.6,26.7,29.73,WSW,247,6.0,11.0,67,0.00,,,0.00,Wunderground v.1.15,2013-03-01 03:23:00,
2013-02-28 22:28:00,36.7,26.8,29.73,WSW,255,5.0,11.0,67,0.00,,,0.00,Wunderground v.1.15,2013-03-01 03:28:00,
2013-02-28 22:33:00,36.7,26.8,29.73,WSW,248,5.0,11.0,67,0.00,,,0.00,Wunderground v.1.15,2013-03-01 03:33:00,
2013-02-28 22:39:00,36.7,26.8,29.74,SW,233,5.0,11.0,67,0.00,,,0.00,Wunderground v.1.15,2013-03-01 03:39:00,
2013-02-28 22:44:00,36.7,26.8,29.74,WSW,243,5.0,11.0,67,0.00,,,0.00,Wunderground v.1.15,2013-03-01 03:44:00,
2013-02-28 22:49:00,36.7,26.8,29.74,WSW,253,5.0,11.0,67,0.00,,,0.00,Wunderground v.1.15,2013-03-01 03:49:00,
2013-02-28 22:54:00,36.8,26.9,29.74,WSW,247,5.0,11.0,67,0.00,,,0.00,Wunderground v.1.15,2013-03-01 03:54:00,
2013-02-28 22:59:00,36.8,26.9,29.74,West,269,4.0,11.0,67,0.00,,,0.00,Wunderground v.1.15,2013-03-01 03:59:00,
2013-02-28 23:04:00,36.9,27.0,29.74,WSW,250,5.0,11.0,67,0.00,,,0.00,Wunderground v.1.15,2013-03-01 04:04:00,
2013-02-28 23:10:00,36.9,27.0,29.74,West,281,6.0,11.0,67,0.00,,,0.00,Wunderground v.1.15,2013-03-01 04:10:00,
2013-02-28 23:15:00,36.9,27.0,29.73,West,267,6.0,11.0,67,0.00,,,0.00,Wunderground v.1.15,2013-03-01 04:15:00,
2013-02-28 23:21:00,36.9,27.0,29.73,West,270,7.0,10.0,67,0.00,,,0.00,Wunderground v.1.15,2013-03-01 04:21:00,
2013-02-28 23:26:00,36.9,27.0,29.73,WSW,249,6.0,11.0,67,0.00,,,0.00,Wunderground v.1.15,2013-03-01 04:26:00,
2013-02-28 23:31:00,36.9,27.0,29.74,West,280,6.0,11.0,67,0.00,,,0.00,Wunderground v.1.15,2013-03-01 04:31:00,
2013-02-28 23:36:00,36.9,27.0,29.74,WSW,256,5.0,11.0,67,0.00,,,0.00,Wunderground v.1.15,2013-03-01 04:36:00,
2013-02-28 23:42:00,36.9,27.0,29.73,West,264,5.0,11.0,67,0.00,,,0.00,Wunderground v.1.15,2013-03-01 04:42:00,
2013-02-28 23:47:00,36.9,27.0,29.74,SW,229,4.0,11.0,67,0.00,,,0.00,Wunderground v.1.15,2013-03-01 04:47:00,
2013-02-28 23:52:00,36.8,26.9,29.74,SW,235,3.0,11.0,67,0.00,,,0.00,Wunderground v.1.15,2013-03-01 04:52:00,
2013-02-28 23:57:00,36.8,26.9,29.74,SW,228,1.0,11.0,67,0.00,,,0.00,Wunderground v.1.15,2013-03-01 04:57:00,